Location: Croisilles
(50.1998°N, 2.8793°E)
Time: 13:21:30
(UTC+00:00)

NOAA 11 - Pass Details

Date: 21 January 2021
Orbit: 832 x 850 km, 98.4° (Epoch: 26 February)

Event Time Altitude Azimuth Distance (km) Brightness Sun altitude
Rises 17:04:11 0° 158° (SSE) 3,404 7.4 -6.6°
Reaches altitude 10° 17:06:33 10° 157° (SSE) 2,473 6.7 -6.9°
Maximum altitude 17:12:02 78° 72° (ENE) 876 4.2 -7.7°
Drops below altitude 10° 17:17:33 10° 348° (NNW) 2,486 6.6 -8.5°
Sets 17:19:56 0° 347° (NNW) 3,424 7.3 -8.9°
